Weather History for Birmingham, AL

Change the Weather History Date:

Monday, November 17, 2014

  Actual Average Record
Temperature  
Mean Temperature 43 °F 54 °F  
Max Temperature 58 °F 65 °F 82 °F (1958)
Min Temperature 27 °F 43 °F 20 °F (1997)
Degree Days  
Heating Degree Days 22 11  
Month to date heating degree days 264 155  
Since 1 July heating degree days 351 282  
Moisture  
Dew Point 40 °F    
Average Humidity 72    
Maximum Humidity 93    
Minimum Humidity 51    
Precipitation  
Precipitation 1.00 in 0.17 in 1.26 in (1946)
Month to date precipitation 3.54 2.52  
Year to date precipitation 41.70 46.94  
Snow  
Snow 0.00 in 0.00 in - ()
Month to date snowfall 0.0 0.0  
Since 1 July snowfall 0.0 0.0  
Since 1 September snowfall 0.0 0.0  
Snow Depth 0.00 in    
Sea Level Pressure  
Sea Level Pressure 29.93 in    
Wind  
Wind Speed 12 mph (NW)    
Max Wind Speed 23 mph    
Max Gust Speed 29 mph    
Visibility 7 miles    
Events Rain    
T = Trace of Precipitation, MM = Missing Value Source: NWS Daily Summary

Daily Weather History Graph

Daily Weather History Graph

Search for Another Location

Airport:

Trip Planner

Search our weather history database for the weather conditions in past years. The results will help you decide how hot, cold, wet, or windy it might be!

Date:

Astronomy

Nov. 17, 2014 Rise Set
Actual Time 6:20 AM CST 4:43 PM CST
Civil Twilight 5:53 AM CST 5:09 PM CST
Nautical Twilight 5:23 AM CST 5:39 PM CST
Astronomical Twilight 4:54 AM CST 6:09 PM CST
Moon 1:36 AM CST (11/17) 1:53 PM CST (11/17)
Length of Visible Light 11h 15m
Length of Day
10h 22m
Waning Crescent, 22% of the Moon is Illuminated
Nov 17
Waning Crescent
Nov 22
New
Nov 29
First Quarter
Dec 6
Full
Dec 14
Last Quarter

Hourly Weather History & Observations

Time (CST) Temp. Windchill Dew Point Humidity Pressure Visibility Wind Dir Wind Speed Gust Speed Precip Events Conditions
12:08 AM 55.0 °F - 53.1 °F 93% 29.81 in 1.8 mi East 10.4 mph - 0.16 in Rain Rain
12:14 AM 55.0 °F - 53.1 °F 93% 29.80 in 3.0 mi ESE 9.2 mph - 0.21 in Rain Rain
12:53 AM 55.0 °F - 53.1 °F 93% 29.78 in 10.0 mi Variable 5.8 mph - 0.26 in Rain Light Rain
1:23 AM 55.0 °F - 53.1 °F 93% 29.78 in 10.0 mi Variable 3.5 mph - 0.01 in   Overcast
1:53 AM 55.9 °F - 54.0 °F 93% 29.74 in 4.0 mi SE 4.6 mph - 0.08 in Rain Rain
2:06 AM 55.9 °F - 55.0 °F 97% 29.76 in 2.5 mi South 5.8 mph - 0.03 in Rain Rain
2:11 AM 55.9 °F - 55.0 °F 97% 29.76 in 1.0 mi Variable 3.5 mph - 0.17 in Rain Heavy Rain
2:17 AM 55.9 °F - 55.0 °F 97% 29.75 in 2.0 mi Calm Calm - 0.19 in Rain Light Rain
2:24 AM 55.9 °F - 55.0 °F 97% 29.74 in 10.0 mi Calm Calm - 0.19 in   Overcast
2:34 AM 57.0 °F - 55.0 °F 93% 29.73 in 10.0 mi SE 3.5 mph - 0.19 in Rain Light Rain
2:53 AM 57.2 °F - 57.2 °F 100% 29.75 in 2.0 mi WNW 9.2 mph - N/A Rain Heavy Rain
3:00 AM 57.9 °F - 55.9 °F 93% 29.78 in 1.5 mi West 17.3 mph 28.8 mph 0.09 in Rain Heavy Rain
3:05 AM 57.0 °F - 55.0 °F 93% 29.79 in 3.0 mi WNW 16.1 mph 28.8 mph 0.11 in Rain Light Rain
3:15 AM 55.0 °F - 53.1 °F 93% 29.77 in 8.0 mi North 11.5 mph 24.2 mph 0.12 in Rain Light Rain
3:28 AM 55.0 °F - 53.1 °F 93% 29.75 in 4.0 mi NE 6.9 mph - 0.16 in Rain Rain
3:53 AM 55.0 °F - 53.1 °F 93% 29.76 in 9.0 mi NW 9.2 mph - 0.17 in Rain Light Rain
4:00 AM 55.0 °F - 53.1 °F 93% 29.77 in 1.8 mi WNW 5.8 mph - 0.06 in Rain Heavy Rain
4:08 AM 54.0 °F - 53.1 °F 97% 29.77 in 1.5 mi NNW 5.8 mph - 0.17 in Rain Heavy Rain
4:14 AM 54.0 °F - 53.1 °F 97% 29.77 in 3.0 mi NW 8.1 mph - 0.19 in Rain Rain
4:22 AM 54.0 °F - 53.1 °F 97% 29.78 in 4.0 mi WNW 9.2 mph - 0.21 in Rain Rain
4:32 AM 53.1 °F - 52.0 °F 96% 29.79 in 4.0 mi WNW 11.5 mph 19.6 mph 0.23 in Rain Rain
4:53 AM 51.1 °F - 48.9 °F 92% 29.80 in 8.0 mi WNW 17.3 mph 21.9 mph 0.24 in Rain Light Rain
5:20 AM 46.9 °F - 44.1 °F 90% 29.83 in 10.0 mi NW 20.7 mph 27.6 mph 0.05 in   Overcast
5:31 AM 46.9 °F - 44.1 °F 90% 29.84 in 10.0 mi NW 12.7 mph - 0.05 in Rain Light Rain
5:53 AM 46.0 °F 39.9 °F 43.0 °F 89% 29.86 in 10.0 mi NW 13.8 mph 21.9 mph 0.05 in   Overcast
6:27 AM 44.1 °F 36.8 °F 41.0 °F 89% 29.88 in 10.0 mi NW 16.1 mph - N/A   Overcast
6:44 AM 43.0 °F 35.4 °F 39.9 °F 89% 29.90 in 10.0 mi WNW 16.1 mph 25.3 mph N/A   Overcast
6:53 AM 43.0 °F 36.0 °F 39.9 °F 89% 29.91 in 10.0 mi NW 13.8 mph 27.6 mph N/A   Overcast
7:53 AM 39.9 °F 30.5 °F 37.9 °F 93% 29.96 in 3.0 mi NW 19.6 mph 28.8 mph N/A   Overcast
8:28 AM 39.0 °F 30.3 °F 37.0 °F 93% 30.00 in 2.0 mi NW 16.1 mph 27.6 mph 0.01 in Rain Light Rain
8:53 AM 37.9 °F 28.5 °F 36.0 °F 93% 30.00 in 2.5 mi NW 17.3 mph 24.2 mph 0.01 in   Light Drizzle
9:04 AM 37.9 °F 28.2 °F 35.1 °F 89% 30.00 in 4.0 mi NW 18.4 mph 25.3 mph 0.00 in   Light Drizzle
9:49 AM 37.4 °F 27.8 °F 33.8 °F 87% 30.01 in 10.0 mi NW 17.3 mph 23.0 mph 0.00 in   Overcast
9:53 AM 37.9 °F 29.6 °F 34.0 °F 86% 30.01 in 10.0 mi NW 13.8 mph 23.0 mph 0.00 in   Overcast
10:38 AM 37.9 °F 29.2 °F 33.1 °F 83% 30.02 in 10.0 mi NNW 15.0 mph 25.3 mph N/A   Overcast
10:53 AM 37.0 °F 28.1 °F 32.0 °F 82% 30.04 in 10.0 mi NNW 15.0 mph 24.2 mph N/A   Overcast
11:23 AM 37.0 °F 29.3 °F 32.0 °F 82% 30.04 in 10.0 mi NW 11.5 mph - N/A   Overcast
11:53 AM 37.0 °F 28.5 °F 32.0 °F 82% 30.06 in 10.0 mi NW 13.8 mph - N/A   Overcast
12:00 PM 37.0 °F 28.9 °F 30.9 °F 79% 30.05 in 10.0 mi NNW 12.7 mph - N/A   Overcast
12:53 PM 37.9 °F 29.6 °F 30.9 °F 76% 30.05 in 10.0 mi NW 13.8 mph 20.7 mph N/A   Overcast
1:27 PM 39.0 °F 31.0 °F 28.9 °F 67% 30.06 in 10.0 mi WNW 13.8 mph 23.0 mph N/A   Mostly Cloudy
1:53 PM 39.0 °F 31.0 °F 28.0 °F 65% 30.06 in 10.0 mi WNW 13.8 mph 24.2 mph N/A   Mostly Cloudy
2:53 PM 42.1 °F 35.2 °F 27.0 °F 55% 30.07 in 10.0 mi NW 12.7 mph - N/A   Mostly Cloudy
3:53 PM 41.0 °F 34.3 °F 25.0 °F 53% 30.09 in 10.0 mi NW 11.5 mph - N/A   Partly Cloudy
4:53 PM 37.9 °F 29.6 °F 21.9 °F 53% 30.12 in 10.0 mi NW 13.8 mph - N/A   Clear
5:53 PM 36.0 °F 29.0 °F 21.0 °F 55% 30.16 in 10.0 mi NW 9.2 mph - N/A   Clear
6:53 PM 34.0 °F 24.2 °F 19.9 °F 56% 30.19 in 10.0 mi NW 15.0 mph 21.9 mph N/A   Clear
7:53 PM 32.0 °F 22.5 °F 19.9 °F 61% 30.22 in 10.0 mi NNW 12.7 mph - N/A   Clear
8:53 PM 30.0 °F 20.5 °F 18.0 °F 61% 30.25 in 10.0 mi NNW 11.5 mph - N/A   Clear
9:53 PM 28.9 °F 18.6 °F 18.0 °F 64% 30.28 in 10.0 mi NNW 12.7 mph - N/A   Clear
10:53 PM 28.0 °F 19.3 °F 17.1 °F 63% 30.30 in 10.0 mi NNW 9.2 mph - N/A   Clear
11:53 PM 27.0 °F 19.5 °F 17.1 °F 66% 30.29 in 10.0 mi NW 6.9 mph - N/A   Clear